Weather History for Moose Lake, MN

Change the Weather History Date:

Tuesday, January 8, 2013

  Actual Average Record
Temperature  
Mean Temperature 19 °F -  
Max Temperature 33 °F 16 °F 55 °F (2003)
Min Temperature 5 °F -7 °F -31 °F (1966)
Degree Days  
Heating Degree Days 46    
Moisture  
Dew Point 14 °F    
Average Humidity 71    
Maximum Humidity 86    
Minimum Humidity 56    
Precipitation  
Precipitation 0.00 in - - ()
Sea Level Pressure  
Sea Level Pressure 29.82 in    
Wind  
Wind Speed 3 mph (SSW)    
Max Wind Speed 15 mph    
Max Gust Speed 21 mph    
Visibility 8 miles    
Events      
Averages and records for this station are not official NWS values.
T = Trace of Precipitation, MM = Missing Value Source: NWS Daily Summary

Daily Weather History Graph

Daily Weather History Graph

Search for Another Location

Airport:

Trip Planner

Search our weather history database for the weather conditions in past years. The results will help you decide how hot, cold, wet, or windy it might be!

Date:

Astronomy

Jan. 08, 2013 Rise Set
Actual Time 7:53 AM CST 4:42 PM CST
Civil Twilight 7:19 AM CST 5:17 PM CST
Nautical Twilight 6:41 AM CST 5:54 PM CST
Astronomical Twilight 6:05 AM CST 6:31 PM CST
Moon 4:26 AM CST (1/8) 1:46 PM CST (1/8)
Length of Visible Light 9h 57m
Length of Day
8h 49m
Waning Crescent, 13% of the Moon is Illuminated
Jan 8
Waning Crescent
Jan 11
New
Jan 18
First Quarter
Jan 26
Full
Feb 3
Last Quarter

Hourly Weather History & Observations

Time (CST) Temp. Windchill Dew Point Humidity Pressure Visibility Wind Dir Wind Speed Gust Speed Precip Events Conditions
12:11 AM 19.4 °F - 14.0 °F 80% 29.90 in 10.0 mi Calm Calm - N/A   Clear
12:31 AM 19.4 °F 12.8 °F 14.0 °F 80% 29.90 in 10.0 mi WSW 4.6 mph - N/A   Clear
12:51 AM 19.4 °F 11.5 °F 14.0 °F 80% 29.90 in 10.0 mi WSW 5.8 mph - N/A   Clear
1:11 AM 19.4 °F 14.3 °F 14.0 °F 80% 29.90 in 10.0 mi WSW 3.5 mph - N/A   Clear
1:31 AM 19.4 °F 14.3 °F 12.2 °F 74% 29.90 in 10.0 mi SW 3.5 mph - N/A   Clear
1:51 AM 15.8 °F - 10.4 °F 79% 29.90 in 7.0 mi Calm Calm - N/A   Clear
2:11 AM 17.6 °F - 12.2 °F 79% 29.92 in 10.0 mi Calm Calm - N/A   Clear
2:31 AM 17.6 °F - 12.2 °F 79% 29.92 in 7.0 mi Calm Calm - N/A   Clear
2:51 AM 17.6 °F - 10.4 °F 73% 29.92 in 7.0 mi Calm Calm - N/A   Clear
3:11 AM 17.6 °F - 10.4 °F 73% 29.92 in 10.0 mi Calm Calm - N/A   Clear
3:31 AM 12.2 °F - 6.8 °F 79% 29.92 in 10.0 mi Calm Calm - N/A   Clear
3:51 AM 15.8 °F 10.2 °F 10.4 °F 79% 29.92 in 7.0 mi SW 3.5 mph - N/A   Clear
4:11 AM 14.0 °F - 8.6 °F 79% 29.91 in 2.5 mi Calm Calm - N/A   Haze
4:31 AM 14.0 °F - 8.6 °F 79% 29.90 in 7.0 mi Calm Calm - N/A   Clear
4:51 AM 14.0 °F - 8.6 °F 79% 29.90 in 2.0 mi Calm Calm - N/A   Haze
5:11 AM 12.2 °F - 5.0 °F 73% 29.90 in 1.0 mi Calm Calm - N/A   Haze
5:31 AM 6.8 °F - -0.4 °F 72% 29.91 in 10.0 mi Calm Calm - N/A   Clear
5:51 AM 8.6 °F - 1.4 °F 73% 29.90 in 10.0 mi Calm Calm - N/A   Clear
6:11 AM 8.6 °F - 1.4 °F 73% 29.91 in 10.0 mi Calm Calm - N/A   Clear
6:31 AM 6.8 °F - -0.4 °F 72% 29.91 in 10.0 mi Calm Calm - N/A   Mostly Cloudy
6:51 AM 6.8 °F - 1.4 °F 79% 29.92 in 0.8 mi Calm Calm - N/A   Haze
7:11 AM 5.0 °F - -0.4 °F 78% 29.91 in 0.2 mi Calm Calm - N/A   Haze
7:31 AM 5.0 °F - -0.4 °F 78% 29.92 in 0.2 mi Calm Calm - N/A   Haze
7:51 AM 8.6 °F - 1.4 °F 73% 29.92 in 0.5 mi Calm Calm - N/A   Haze
8:11 AM 8.6 °F - 1.4 °F 73% 29.93 in 0.2 mi Calm Calm - N/A   Haze
8:31 AM 10.4 °F - 3.2 °F 73% 29.92 in 0.2 mi Calm Calm - N/A   Haze
8:51 AM 10.4 °F - 3.2 °F 73% 29.94 in 0.2 mi Calm Calm - N/A   Haze
9:11 AM 12.2 °F - 5.0 °F 73% 29.93 in 0.2 mi Calm Calm - N/A   Haze
9:31 AM 14.0 °F - 6.8 °F 73% 29.91 in 1.5 mi Calm Calm - N/A   Haze
9:51 AM 14.0 °F - 8.6 °F 79% 29.90 in 5.0 mi Calm Calm - N/A   Haze
10:11 AM 15.8 °F - 10.4 °F 79% 29.92 in 5.0 mi Calm Calm - N/A   Haze
10:31 AM 17.6 °F - 10.4 °F 73% 29.90 in 5.0 mi Calm Calm - N/A   Haze
10:51 AM 17.6 °F - 12.2 °F 79% 29.89 in 5.0 mi Calm Calm - N/A   Haze
11:11 AM 19.4 °F - 12.2 °F 74% 29.88 in 5.0 mi Calm Calm - N/A   Haze
11:31 AM 21.2 °F - 14.0 °F 74% 29.87 in 5.0 mi Calm Calm - N/A   Haze
11:51 AM 21.2 °F - 15.8 °F 80% 29.87 in 7.0 mi Calm Calm - N/A   Overcast
12:11 PM 23.0 °F - 17.6 °F 80% 29.86 in 7.0 mi Calm Calm - N/A   Overcast
12:31 PM 24.8 °F - 19.4 °F 80% 29.83 in 7.0 mi Calm Calm - N/A   Mostly Cloudy
12:51 PM 26.6 °F - 21.2 °F 80% 29.81 in 10.0 mi Calm Calm - N/A   Clear
1:11 PM 28.4 °F - 23.0 °F 80% 29.79 in 10.0 mi Calm Calm - N/A   Mostly Cloudy
1:51 PM 30.2 °F 25.4 °F 26.6 °F 86% 29.76 in 10.0 mi East 4.6 mph - N/A   Scattered Clouds
2:11 PM 32.0 °F 27.5 °F 23.0 °F 69% 29.76 in 10.0 mi East 4.6 mph - N/A   Scattered Clouds
2:31 PM 32.0 °F - 21.2 °F 64% 29.75 in 10.0 mi Calm Calm - N/A   Mostly Cloudy
2:51 PM 33.8 °F 30.8 °F 19.4 °F 56% 29.73 in 10.0 mi SE 3.5 mph - N/A   Overcast
3:11 PM 33.8 °F 30.8 °F 19.4 °F 56% 29.72 in 10.0 mi ESE 3.5 mph - N/A   Overcast
3:31 PM 33.8 °F 28.6 °F 19.4 °F 56% 29.69 in 10.0 mi ESE 5.8 mph - N/A   Overcast
3:51 PM 33.8 °F 30.8 °F 19.4 °F 56% 29.69 in 10.0 mi ESE 3.5 mph - N/A   Overcast
4:11 PM 33.8 °F 29.6 °F 19.4 °F 56% 29.70 in 10.0 mi SE 4.6 mph - N/A   Overcast
4:31 PM 33.8 °F 30.8 °F 19.4 °F 56% 29.70 in 10.0 mi SSE 3.5 mph - N/A   Overcast
4:51 PM 33.8 °F 29.6 °F 19.4 °F 56% 29.69 in 10.0 mi SSE 4.6 mph - N/A   Overcast
5:11 PM 33.8 °F 28.6 °F 21.2 °F 60% 29.69 in 10.0 mi South 5.8 mph - N/A   Overcast
5:31 PM 32.0 °F 27.5 °F 21.2 °F 64% 29.69 in 10.0 mi South 4.6 mph - N/A   Overcast
5:51 PM 32.0 °F 24.8 °F 21.2 °F 64% 29.68 in 10.0 mi South 8.1 mph - N/A   Overcast
6:31 PM 32.0 °F 23.6 °F 21.2 °F 64% 29.68 in 10.0 mi SSW 10.4 mph 16.1 mph N/A   Overcast
6:51 PM 32.0 °F 23.6 °F 21.2 °F 64% 29.68 in 10.0 mi SSW 10.4 mph 18.4 mph N/A   Overcast
7:11 PM 32.0 °F 23.0 °F 21.2 °F 64% 29.68 in 10.0 mi SW 11.5 mph 19.6 mph N/A   Overcast
7:32 PM 32.0 °F 25.6 °F 21.2 °F 64% 29.68 in 10.0 mi SW 6.9 mph - N/A   Overcast
7:51 PM 32.0 °F 22.5 °F 23.0 °F 69% 29.68 in 10.0 mi SW 12.7 mph 19.6 mph N/A   Overcast
8:11 PM 32.0 °F 23.6 °F 23.0 °F 69% 29.67 in 10.0 mi SW 10.4 mph - N/A   Overcast
8:31 PM 32.0 °F 22.1 °F 21.2 °F 64% 29.69 in 10.0 mi WSW 13.8 mph 20.7 mph N/A   Overcast
8:51 PM 32.0 °F 21.6 °F 21.2 °F 64% 29.69 in 10.0 mi WSW 15.0 mph 19.6 mph N/A   Overcast
9:11 PM 32.0 °F 23.6 °F 21.2 °F 64% 29.69 in 10.0 mi WSW 10.4 mph 18.4 mph N/A   Overcast
9:31 PM 32.0 °F 24.2 °F 21.2 °F 64% 29.70 in 10.0 mi WSW 9.2 mph - N/A   Overcast
9:51 PM 32.0 °F 23.6 °F 21.2 °F 64% 29.70 in 10.0 mi SW 10.4 mph 16.1 mph N/A   Overcast
10:11 PM 32.0 °F 23.6 °F 21.2 °F 64% 29.71 in 10.0 mi WSW 10.4 mph - N/A   Overcast
10:31 PM 32.0 °F 23.6 °F 23.0 °F 69% 29.72 in 10.0 mi SW 10.4 mph - N/A   Overcast
10:51 PM 32.0 °F 24.8 °F 23.0 °F 69% 29.72 in 10.0 mi SW 8.1 mph - N/A   Overcast
11:11 PM 32.0 °F 24.8 °F 23.0 °F 69% 29.73 in 10.0 mi SW 8.1 mph - N/A   Overcast
11:31 PM 32.0 °F 24.8 °F 23.0 °F 69% 29.73 in 10.0 mi SW 8.1 mph - N/A   Overcast
11:51 PM 32.0 °F 23.0 °F 23.0 °F 69% 29.73 in 10.0 mi SW 11.5 mph 16.1 mph N/A   Mostly Cloudy